Location: Alexandria
(38.8050°N, 77.0470°W)
Time: 07:34:10
(UTC-05:00)

Hubble Space Telescope - Pass Details

Date: 18 November 2017
Orbit: 537 x 541 km, 28.5° (Epoch: 18 November)

Event Time Altitude Azimuth Distance (km) Brightness Sun altitude
Exits shadow 04:28:50 11° 163° (SSE) 1,733 3.5 -28.2°
Maximum altitude 04:28:54 11° 162° (SSE) 1,733 3.6 -28.2°
Drops below altitude 10° 04:29:52 10° 149° (SSE) 1,778 3.8 -28.0°
Sets 04:33:53 0° 110° (ESE) 2,672 5.5 -27.2°
